TimeAKST,TemperatureF,Dew PointF,Humidity,Sea Level PressureIn,VisibilityMPH,Wind Direction,Wind SpeedMPH,Gust SpeedMPH,PrecipitationIn,Events,Conditions,WindDirDegrees,DateUTC
12:53 AM,-20.0,-26.0,74,30.30,5.0,NE,3.5,-,N/A,,Clear,40,2012-11-25 09:53:00
1:53 AM,-20.0,-27.0,70,30.32,5.0,Calm,Calm,-,N/A,,Clear,0,2012-11-25 10:53:00
3:53 AM,-20.9,-27.0,73,30.34,6.0,Calm,Calm,-,N/A,,Clear,0,2012-11-25 12:53:00
4:53 AM,-20.9,-27.0,73,30.36,6.0,Calm,Calm,-,N/A,,Clear,0,2012-11-25 13:53:00
5:53 AM,-20.9,-27.0,73,30.36,5.0,Calm,Calm,-,N/A,,Clear,0,2012-11-25 14:53:00
6:53 AM,-23.1,-29.0,74,30.38,6.0,Calm,Calm,-,N/A,,Clear,0,2012-11-25 15:53:00
7:53 AM,-22.0,-29.0,70,30.39,6.0,Calm,Calm,-,N/A,,Clear,0,2012-11-25 16:53:00
8:53 AM,-24.0,-29.9,74,30.40,10.0,NNE,4.6,-,N/A,,Partly Cloudy,30,2012-11-25 17:53:00
9:53 AM,-22.0,-27.9,74,30.40,10.0,Calm,Calm,-,N/A,,Partly Cloudy,0,2012-11-25 18:53:00
10:53 AM,-20.9,-27.9,70,30.42,10.0,Calm,Calm,-,N/A,,Partly Cloudy,0,2012-11-25 19:53:00
11:53 AM,-20.0,-27.0,70,30.43,10.0,Calm,Calm,-,N/A,,Partly Cloudy,0,2012-11-25 20:53:00
12:53 PM,-16.1,-22.0,74,30.44,10.0,Calm,Calm,-,N/A,,Partly Cloudy,0,2012-11-25 21:53:00
1:53 PM,-16.1,-23.1,71,30.44,10.0,Calm,Calm,-,N/A,,Partly Cloudy,0,2012-11-25 22:53:00
2:53 PM,-17.0,-22.0,78,30.45,10.0,Calm,Calm,-,N/A,,Clear,0,2012-11-25 23:53:00
3:53 PM,-18.0,-24.0,74,30.45,10.0,Calm,Calm,-,N/A,,Clear,0,2012-11-26 00:53:00
4:53 PM,-20.0,-26.0,74,30.45,10.0,Calm,Calm,-,N/A,,Clear,0,2012-11-26 01:53:00
5:53 PM,-20.0,-25.1,78,30.46,10.0,Calm,Calm,-,N/A,,Clear,0,2012-11-26 02:53:00
6:53 PM,-20.0,-25.1,78,30.46,10.0,Calm,Calm,-,N/A,,Clear,0,2012-11-26 03:53:00
7:53 PM,-23.1,-29.0,74,30.48,10.0,Calm,Calm,-,N/A,,Clear,0,2012-11-26 04:53:00
8:53 PM,-20.9,-26.0,77,30.49,10.0,Calm,Calm,-,N/A,,Clear,0,2012-11-26 05:53:00
9:53 PM,-23.1,-27.9,78,30.49,10.0,Calm,Calm,-,N/A,,Clear,0,2012-11-26 06:53:00
10:53 PM,-20.9,-27.0,73,30.50,10.0,NNE,3.5,-,N/A,,Clear,30,2012-11-26 07:53:00
11:53 PM,-20.9,-27.0,73,30.49,10.0,Calm,Calm,-,N/A,,Clear,0,2012-11-26 08:53:00